Frankfort, KY

3:00 PM EDT on June 22, 2017 (GMT -0400)
Capital City

Weather History for KFFT - January, 2012

Change the Weather History Date:

Wednesday, January 18, 2012

  Actual Average Record
Temperature  
Mean Temperature 29 °F 32 °F  
Max Temperature 34 °F 42 °F 73 °F (1929)
Min Temperature 24 °F 23 °F -17 °F (1977)
Degree Days  
Heating Degree Days 36 33  
Month to date heating degree days 530 594  
Since 1 July heating degree days 2152 2426  
Cooling Degree Days 0 0  
Month to date cooling degree days 0 0  
Year to date cooling degree days 0 0  
Moisture  
Dew Point 20 °F    
Average Humidity 64    
Maximum Humidity 81    
Minimum Humidity 47    
Precipitation  
Precipitation T in 0.10 in 1.41 in (1937)
Month to date precipitation 1.65 2.05  
Year to date precipitation 1.65 2.05  
Sea Level Pressure  
Sea Level Pressure 30.21 in    
Wind  
Wind Speed 5 mph (NW)    
Max Wind Speed 14 mph    
Max Gust Speed 21 mph    
Visibility 10 miles    
Events      
T = Trace of Precipitation, MM = Missing Value Source: NWS Daily Summary

Daily Weather History Graph

Daily Weather History Graph

Search for Another Location

Airport or City:

Trip Planner

Search our weather history database for the weather conditions in past years. The results will help you decide how hot, cold, wet, or windy it might be!

Date:

Astronomy

Jan. 18, 2012 Rise Set
Actual Time 7:53 AM EST 5:46 PM EST
Civil Twilight 7:25 AM EST 6:14 PM EST
Nautical Twilight 6:52 AM EST 6:47 PM EST
Astronomical Twilight 6:21 AM EST 7:18 PM EST
Moon 3:22 AM EST (1/18) 1:25 PM EST (1/18)
Length of Visible Light 10h 49m
Length of Day
9h 52m
Waning Crescent, 25% of the Moon is Illuminated
Jan 18
Waning Crescent
Jan 23
New
Jan 30
First Quarter
Feb 7
Full
Feb 14
Last Quarter

Hourly Weather History & Observations

Time (EST) Temp. Windchill Dew Point Humidity Pressure Visibility Wind Dir Wind Speed Gust Speed Precip Events Conditions
12:06 AM 33.8 °F 26.4 °F 24.8 °F 70% 30.16 in 10.0 mi WNW 9.2 mph - N/A   Overcast
12:22 AM 32.0 °F 22.5 °F 24.8 °F 75% 30.17 in 10.0 mi WNW 12.7 mph 19.6 mph N/A   Overcast
12:48 AM 32.0 °F 24.2 °F 23.0 °F 69% 30.17 in 10.0 mi WNW 9.2 mph 18.4 mph N/A   Overcast
12:53 AM 32.0 °F 24.2 °F 23.0 °F 69% 30.19 in 10.0 mi NW 9.2 mph - N/A   Overcast
1:53 AM 30.9 °F 22.8 °F 24.1 °F 76% 30.20 in 10.0 mi WNW 9.2 mph - N/A   Overcast
2:53 AM 30.0 °F 24.1 °F 21.9 °F 72% 30.22 in 10.0 mi WNW 5.8 mph - N/A   Overcast
3:30 AM 30.2 °F 23.4 °F 21.2 °F 69% 30.21 in 10.0 mi NW 6.9 mph - N/A   Overcast
3:53 AM 30.0 °F 24.1 °F 21.9 °F 72% 30.21 in 10.0 mi Variable 5.8 mph - N/A   Overcast
4:27 AM 28.4 °F 23.3 °F 21.2 °F 74% 30.19 in 10.0 mi NW 4.6 mph - N/A   Overcast
4:53 AM 28.9 °F 22.8 °F 21.9 °F 75% 30.22 in 10.0 mi NW 5.8 mph - N/A   Overcast
5:05 AM 28.4 °F 21.2 °F 21.2 °F 74% 30.20 in 10.0 mi NW 6.9 mph - N/A   Overcast
5:53 AM 28.9 °F 21.1 °F 21.0 °F 72% 30.23 in 10.0 mi NW 8.1 mph - N/A   Overcast
6:53 AM 28.9 °F 22.8 °F 21.0 °F 72% 30.25 in 10.0 mi WNW 5.8 mph - N/A   Overcast
7:53 AM 28.9 °F 21.9 °F 18.0 °F 64% 30.28 in 10.0 mi North 6.9 mph - N/A   Overcast
8:08 AM 28.4 °F 22.2 °F 17.6 °F 64% 30.25 in 10.0 mi NNW 5.8 mph - N/A   Overcast
8:53 AM 28.0 °F - 17.1 °F 63% 30.29 in 10.0 mi Calm Calm - N/A   Overcast
9:08 AM 28.4 °F 24.6 °F 19.4 °F 69% 30.27 in 10.0 mi NNW 3.5 mph - N/A   Overcast
9:53 AM 28.0 °F 24.2 °F 18.0 °F 66% 30.31 in 9.0 mi NNW 3.5 mph - 0.00 in   Overcast
10:53 AM 28.9 °F 22.8 °F 17.1 °F 61% 30.31 in 10.0 mi West 5.8 mph - N/A   Overcast
11:09 AM 28.4 °F 24.6 °F 17.6 °F 64% 30.28 in 10.0 mi Variable 3.5 mph - N/A   Overcast
11:53 AM 28.9 °F - 18.0 °F 64% 30.27 in 10.0 mi Calm Calm - N/A   Overcast
12:53 PM 30.0 °F - 17.1 °F 59% 30.26 in 10.0 mi Calm Calm - N/A   Overcast
1:53 PM 33.1 °F 30.0 °F 18.0 °F 54% 30.21 in 10.0 mi East 3.5 mph - N/A   Mostly Cloudy
2:53 PM 32.0 °F 26.4 °F 17.1 °F 54% 30.22 in 10.0 mi Variable 5.8 mph - N/A   Scattered Clouds
3:53 PM 32.0 °F - 16.0 °F 52% 30.19 in 10.0 mi Calm Calm - N/A   Clear
4:53 PM 33.1 °F - 16.0 °F 50% 30.19 in 10.0 mi Calm Calm - N/A   Partly Cloudy
5:53 PM 28.9 °F 21.1 °F 19.0 °F 67% 30.17 in 10.0 mi East 8.1 mph - N/A   Clear
6:53 PM 27.0 °F - 19.0 °F 72% 30.17 in 10.0 mi Calm Calm - N/A   Partly Cloudy
7:53 PM 28.0 °F 21.7 °F 19.0 °F 69% 30.17 in 10.0 mi South 5.8 mph - N/A   Partly Cloudy
8:53 PM 25.0 °F 20.7 °F 18.0 °F 75% 30.15 in 10.0 mi SE 3.5 mph - N/A   Clear
9:53 PM 25.0 °F 20.7 °F 19.0 °F 78% 30.16 in 10.0 mi SSW 3.5 mph - N/A   Clear
11:53 PM 26.1 °F 19.4 °F 19.0 °F 75% 30.11 in 10.0 mi SE 5.8 mph - N/A   Mostly Cloudy